Weather in Kuimikha

Russia / Arkhangel'skaya Oblast'     61°10′42″N   46°32′35″E
temp.,
°C
wind,
m/s
gust,
m/s
humid.,
%
clouds,
%
prec.,
mm/h
press.,
hPa
HPBL,
m
13 may, thu
thu1300:00+14s22741 0.0 102520
03:00+12ssw22730 0.0 102522
06:00+15s24670 0.0 1024145
09:00+22s34475 0.0 1024539
12:00+25s36367 0.0 10232029
15:00+26ssw453046 0.0 10212644
18:00+23ssw13526 0.0 102087
21:00+17s22675 0.0 101917
14 may, fri
fri1400:00+15sse287487 0.0 1019155
03:00+14sse2875100 0.0 1017156
06:00+15s3108499 0.4 1016511
09:00+19sw467169 0.4 10171061
12:00+22wsw464926 0.0 10171641
15:00+24wsw57375 0.0 10162384
18:00+21wsw3647100 0.0 1015298
21:00+16sw2564100 0.0 101694
15 may, sat
sat1500:00+14wsw267442 0.0 1017113
03:00+12sw238390 0.0 101739
06:00+15s247255 0.0 1017170
09:00+21s355383 0.0 1015971
12:00+24s594398 0.0 10131949
15:00+23s3753100 0.1 1011693
18:00+22ene226681 1.3 1009344
21:00+16ssw51195100 8.6 1009502
16 may, sun
sun1600:00+14s3991100 0.4 1008257
03:00+14ssw3993100 0.4 1008320
06:00+16ssw399135 0.2 1007424
09:00+20ssw476714 0.3 10071043
12:00+23ssw584576 0.0 10072375
15:00+20sw58616 0.2 10071286
18:00+17wsw4979100 1.7 1008871
21:00+14sw3109177 4.1 1008649
17 may, mon
mon1700:00+13sw379487 0.1 1009405
03:00+13wsw4895100 0.2 1010571
06:00+11wnw3794100 0.0 1011445
09:00+11nw3693100 0.0 1014476
12:00+12nw3487100 0.1 1016648
15:00+11nnw2386100 0.1 1017708
18:00+11n2387100 0.0 1018414
21:00+10nne2392100 0.0 1019250